Regional Weather Roundup
Issued by NWS

Home | Current Version | Previous Version | Text Only | Print | Product List | Glossary On
Versions: 1 2 3 4 5 6 7 8 9 10 11 12 13 14 15 16 17 18 19 20 21 22 23 24 25 26 27
000
ASUS45 KREV 232010
RWRNV
NEVADA REGIONAL WEATHER ROUNDUP
NATIONAL WEATHER SERVICE RENO NV
1200 PM PST TUE JAN 23 2018

NOTE: "FAIR" INDICATES FEW OR NO CLOUDS BELOW 12,000 FEET WITH NO
SIGNIFICANT WEATHER AND/OR OBSTRUCTIONS TO VISIBILITY.

NVZ001-003-004-232100-
WESTERN NEVADA

CITY           SKY/WX    TMP DP  RH WIND       PRES   REMARKS
RENO           CLOUDY    42  25  50 CALM      30.24F
CARSON CITY    FAIR      41  23  48 W3        30.27F
MINDEN         FAIR      41  19  42 CALM      30.26F
SLIDE MTN        N/A     34  21  60 W9          N/A
PYRAMID LAKE     N/A     43 N/A N/A NE7         N/A
FALLON         CLOUDY    47 -22   5 SE5       30.25F
LOVELOCK       MOSUNNY   42  28  57 SW7       30.26F
HAWTHORNE      SUNNY     48  16  27 CALM      30.24F
$$

NVZ002-CAZ072-073-232100-
NORTHERN AND CENTRAL SIERRA

CITY           SKY/WX    TMP DP  RH WIND       PRES   REMARKS
S. LAKE TAHOE  SUNNY     43  22  43 NE6       30.25F
TRUCKEE        PTSUNNY   30  30 100 CALM      30.26F
SQUAW VLY 8000   N/A     36  12  38 S8          N/A
SUSANVILLE     SUNNY     37  32  81 E3        30.25F
BLUE CANYON    SUNNY     46  17  31 S7        30.26F
MAMMOTH LAKES  FAIR      43  14  30 SE5       30.28F
BRIDGEPORT     FAIR      46  13  26 CALM      30.21F
$$

NVZ030-031-036-232100-
NORTHERN NEVADA

CITY           SKY/WX    TMP DP  RH WIND       PRES   REMARKS
ELKO           SUNNY     38  26  62 CALM      30.29F
WINNEMUCCA     MOSUNNY   44  30  57 N3        30.25F
WENDOVER       SUNNY     32  23  69 E7        30.35
$$

NVZ035-037-232100-
CENTRAL NEVADA

CITY           SKY/WX    TMP DP  RH WIND       PRES   REMARKS
ELY            SUNNY     29  22  75 S9        30.30F
EUREKA           N/A     32  24  72 CALM      30.28F
$$

NVZ013-014-232100-
SOUTH CENTRAL NEVADA

CITY           SKY/WX    TMP DP  RH WIND       PRES   REMARKS
TONOPAH        SUNNY     42  23  46 S6        30.30F
$$

NVZ017-020-022-232100-
SOUTHERN NEVADA

CITY           SKY/WX    TMP DP  RH WIND       PRES   REMARKS
LAS VEGAS      SUNNY     55  25  31 CALM      30.28F
N. LAS VEGAS   SUNNY     56  25  30 E3        30.28F
NELLIS AFB     SUNNY     56  28  34 CALM      30.28F
HENDERSON      SUNNY     54  26  34 N6        30.31F
MERCURY        NOT AVBL
$$




USA.gov is the U.S. government's official web portal to all federal, state and local government web resources and services.